Angel Fire, NM

2:40 PM MDT on June 16, 2019 (GMT -0600)
Angel Fire

Weather History for KAXX - May, 2019

Change the Weather History Date:

Friday, May 24, 2019

  Actual Average (KSKX) Record (KSKX)
Temperature  
Mean Temperature 42 °F -  
Max Temperature 58 °F 73 °F 86 °F (2005)
Min Temperature 26 °F 37 °F 28 °F (2002)
Degree Days  
Heating Degree Days 23    
Moisture  
Dew Point 21 °F    
Average Humidity 44    
Maximum Humidity 81    
Minimum Humidity 20    
Precipitation  
Precipitation 0.00 in - - ()
Sea Level Pressure  
Sea Level Pressure 30.15 in    
Wind  
Wind Speed 8 mph (WSW)    
Max Wind Speed 21 mph    
Max Gust Speed 28 mph    
Visibility 10 miles    
Events      
Averages and records for this station are not official NWS values.
T = Trace of Precipitation, MM = Missing Value Source: NWS Daily Summary

Daily Weather History Graph

Daily Weather History Graph

Search for Another Location

Airport or City:

Astronomy

May. 24, 2019 Rise Set
Actual Time 5:48 AM MDT 8:07 PM MDT
Civil Twilight 5:18 AM MDT 8:37 PM MDT
Nautical Twilight 4:42 AM MDT 9:13 PM MDT
Astronomical Twilight 4:03 AM MDT 9:53 PM MDT
Moon 12:34 AM MDT (5/24) 10:50 AM MDT (5/24)
Length of Visible Light 15h 18m
Length of Day
14h 19m
Waning Gibbous, 68% of the Moon is Illuminated
May 24
Waning Gibbous
May 26
Last Quarter
Jun 3
New
Jun 10
First Quarter
Jun 17
Full

Hourly Weather History & Observations

Time (MDT) Temp. Windchill Dew Point Humidity Pressure Visibility Wind Dir Wind Speed Gust Speed Precip Events Conditions
12:15 AM 37.2 °F 32.6 °F 20.1 °F 50% 30.16 in 10.0 mi SW 5.8 mph - N/A   Unknown
12:35 AM 35.8 °F 29.4 °F 20.5 °F 54% 30.16 in 10.0 mi South 8.1 mph - N/A   Unknown
12:55 AM 35.4 °F 29.0 °F 21.0 °F 56% 30.16 in 10.0 mi SE 8.1 mph - N/A   Unknown
1:15 AM 33.4 °F 27.3 °F 22.1 °F 63% 30.16 in 10.0 mi South 6.9 mph - N/A   Unknown
1:35 AM 32.9 °F - 21.9 °F 64% 30.15 in 10.0 mi Calm Calm - N/A   Unknown
1:55 AM 34.7 °F 31.8 °F 20.8 °F 57% 30.13 in 10.0 mi South 3.5 mph - N/A   Unknown
2:15 AM 35.8 °F 31.9 °F 20.7 °F 54% 30.12 in 10.0 mi SW 4.6 mph - N/A   Unknown
2:35 AM 36.0 °F 32.1 °F 19.9 °F 52% 30.11 in 10.0 mi SW 4.6 mph - N/A   Unknown
2:55 AM 36.9 °F 30.7 °F 20.7 °F 52% 30.11 in 10.0 mi SW 8.1 mph - N/A   Unknown
3:15 AM 37.6 °F 30.5 °F 19.8 °F 49% 30.11 in 10.0 mi WSW 10.4 mph 17.3 mph N/A   Unknown
3:35 AM 38.3 °F 33.2 °F 18.7 °F 45% 30.12 in 10.0 mi SW 6.9 mph 16.1 mph N/A   Unknown
3:55 AM 33.6 °F 25.0 °F 20.5 °F 59% 30.14 in 10.0 mi SE 11.5 mph - N/A   Unknown
4:15 AM 32.2 °F 24.4 °F 21.2 °F 64% 30.15 in 10.0 mi SSE 9.2 mph - N/A   Unknown
4:35 AM 33.1 °F 25.5 °F 20.7 °F 60% 30.15 in 10.0 mi SE 9.2 mph - N/A   Unknown
4:55 AM 32.9 °F 27.5 °F 20.3 °F 60% 30.15 in 10.0 mi SSE 5.8 mph - N/A   Unknown
5:15 AM 28.0 °F 24.2 °F 20.7 °F 74% 30.15 in 10.0 mi SW 3.5 mph - N/A   Unknown
5:35 AM 26.6 °F 22.6 °F 20.5 °F 78% 30.16 in 10.0 mi West 3.5 mph - N/A   Unknown
5:55 AM 26.2 °F 20.7 °F 20.3 °F 78% 30.16 in 10.0 mi West 4.6 mph - N/A   Unknown
6:15 AM 27.1 °F - 20.8 °F 77% 30.16 in 10.0 mi Calm Calm - N/A   Unknown
6:35 AM 29.1 °F - 21.7 °F 74% 30.17 in 10.0 mi Calm Calm - N/A   Unknown
6:55 AM 31.1 °F 27.7 °F 22.6 °F 71% 30.18 in 10.0 mi South 3.5 mph - N/A   Unknown
7:15 AM 33.3 °F - 22.6 °F 65% 30.18 in 10.0 mi Calm Calm - N/A   Unknown
7:35 AM 36.5 °F - 23.7 °F 60% 30.18 in 10.0 mi Calm Calm - N/A   Unknown
7:55 AM 41.5 °F 38.6 °F 21.6 °F 45% 30.18 in 10.0 mi SE 4.6 mph - N/A   Unknown
8:15 AM 43.2 °F - 19.9 °F 40% 30.18 in 10.0 mi Calm Calm - N/A   Unknown
8:35 AM 44.6 °F 40.7 °F 21.6 °F 40% 30.19 in 10.0 mi West 6.9 mph - N/A   Unknown
8:55 AM 45.7 °F 41.5 °F 20.3 °F 37% 30.19 in 10.0 mi West 8.1 mph - N/A   Unknown
9:15 AM 46.6 °F - 20.5 °F 36% 30.19 in 10.0 mi SW 18.4 mph 23.0 mph N/A   Unknown
9:35 AM 46.9 °F - 21.6 °F 37% 30.19 in 10.0 mi West 8.1 mph 18.4 mph N/A   Unknown
9:55 AM 48.4 °F - 21.0 °F 34% 30.19 in 10.0 mi WSW 10.4 mph 18.4 mph N/A   Unknown
10:15 AM 49.1 °F - 19.0 °F 30% 30.18 in 10.0 mi WSW 11.5 mph 24.2 mph N/A   Unknown
10:35 AM 50.0 °F - 20.1 °F 31% 30.19 in 10.0 mi West 16.1 mph 21.9 mph N/A   Unknown
10:55 AM 50.2 °F - 14.4 °F 24% 30.18 in 10.0 mi West 20.7 mph 27.6 mph N/A   Unknown
11:15 AM 51.1 °F - 17.4 °F 26% 30.18 in 10.0 mi West 12.7 mph 25.3 mph N/A   Unknown
11:35 AM 51.6 °F - 19.0 °F 28% 30.18 in 10.0 mi WSW 13.8 mph 21.9 mph N/A   Unknown
11:55 AM 52.0 °F - 18.5 °F 27% 30.18 in 10.0 mi WSW 18.4 mph 25.3 mph N/A   Unknown
12:15 PM 52.9 °F - 19.9 °F 28% 30.17 in 10.0 mi West 11.5 mph 25.3 mph N/A   Unknown
12:35 PM 54.3 °F - 20.3 °F 26% 30.17 in 10.0 mi WSW 15.0 mph 20.7 mph N/A   Unknown
12:55 PM 55.2 °F - 19.4 °F 25% 30.16 in 10.0 mi SW 15.0 mph 19.6 mph N/A   Unknown
1:15 PM 55.2 °F - 18.3 °F 24% 30.16 in 10.0 mi West 6.9 mph - N/A   Unknown
1:35 PM 55.6 °F - 19.8 °F 25% 30.15 in 10.0 mi WNW 8.1 mph - N/A   Unknown
1:55 PM 56.3 °F - 20.8 °F 25% 30.14 in 10.0 mi NW 12.7 mph 17.3 mph N/A   Unknown
2:15 PM 56.8 °F - 21.0 °F 25% 30.14 in 10.0 mi WNW 15.0 mph 26.5 mph N/A   Unknown
2:35 PM 57.0 °F - 22.3 °F 26% 30.14 in 10.0 mi WNW 8.1 mph 25.3 mph N/A   Unknown
2:55 PM 57.9 °F - 22.5 °F 25% 30.13 in 10.0 mi West 16.1 mph 27.6 mph N/A   Unknown
3:15 PM 57.9 °F - 21.4 °F 24% 30.12 in 10.0 mi WNW 15.0 mph 24.2 mph N/A   Unknown
3:35 PM 57.6 °F - 21.4 °F 25% 30.12 in 10.0 mi West 11.5 mph 20.7 mph N/A   Unknown
3:55 PM 58.5 °F - 22.5 °F 25% 30.12 in 10.0 mi WNW 18.4 mph 27.6 mph N/A   Unknown
4:15 PM 58.8 °F - 18.3 °F 21% 30.12 in 10.0 mi West 13.8 mph 21.9 mph N/A   Unknown
4:35 PM 58.8 °F - 21.6 °F 24% 30.11 in 10.0 mi NW 15.0 mph 26.5 mph N/A   Unknown
4:55 PM 58.6 °F - 17.4 °F 20% 30.10 in 10.0 mi WSW 18.4 mph 26.5 mph N/A   Unknown
5:15 PM 58.5 °F - 18.3 °F 21% 30.10 in 10.0 mi West 13.8 mph 25.3 mph N/A   Unknown
5:35 PM 58.3 °F - 17.6 °F 20% 30.10 in 10.0 mi WNW 18.4 mph 25.3 mph N/A   Unknown
5:55 PM 58.6 °F - 19.0 °F 21% 30.10 in 10.0 mi WNW 12.7 mph 20.7 mph N/A   Unknown
6:15 PM 58.1 °F - 18.7 °F 22% 30.10 in 10.0 mi WNW 15.0 mph 20.7 mph N/A   Unknown
6:35 PM 57.2 °F - 17.6 °F 21% 30.10 in 10.0 mi West 11.5 mph 19.6 mph N/A   Unknown
6:55 PM 56.5 °F - 18.5 °F 23% 30.10 in 10.0 mi West 15.0 mph - N/A   Unknown
7:15 PM 55.0 °F - 18.1 °F 24% 30.10 in 10.0 mi West 11.5 mph - N/A   Unknown
7:35 PM 54.0 °F - 18.7 °F 25% 30.11 in 10.0 mi West 10.4 mph - N/A   Unknown
7:55 PM 49.6 °F - 22.1 °F 34% 30.12 in 10.0 mi SW 4.6 mph - N/A   Unknown
8:15 PM 44.4 °F 41.2 °F 28.4 °F 53% 30.13 in 10.0 mi WSW 5.8 mph - N/A   Unknown
8:35 PM 42.6 °F 39.9 °F 27.5 °F 55% 30.14 in 10.0 mi West 4.6 mph - N/A   Unknown
8:50 PM 41.2 °F - 26.6 °F 56% 30.14 in 10.0 mi Calm Calm - N/A   Unknown
9:15 PM 40.1 °F - 25.0 °F 55% 30.15 in 10.0 mi Calm Calm - N/A   Unknown
9:35 PM 40.6 °F - 26.2 °F 57% 30.15 in 10.0 mi Calm Calm - N/A   Unknown
9:50 PM 39.7 °F 36.5 °F 24.1 °F 54% 30.16 in 10.0 mi North 4.6 mph - N/A   Unknown
10:15 PM 36.1 °F - 26.6 °F 68% 30.16 in 10.0 mi Calm Calm - N/A   Unknown
10:35 PM 35.2 °F - 26.1 °F 69% 30.18 in 10.0 mi Calm Calm - N/A   Unknown
10:55 PM 35.2 °F - 25.7 °F 68% 30.18 in 10.0 mi Calm Calm - N/A   Unknown
11:15 PM 33.4 °F - 26.1 °F 74% 30.18 in 10.0 mi Calm Calm - N/A   Unknown
11:35 PM 32.0 °F - 26.4 °F 80% 30.18 in 10.0 mi Calm Calm - N/A   Unknown
11:55 PM 31.1 °F - 25.9 °F 81% 30.18 in 10.0 mi Calm Calm - N/A   Unknown